TimeCST,TemperatureF,Dew PointF,Humidity,Sea Level PressureIn,VisibilityMPH,Wind Direction,Wind SpeedMPH,Gust SpeedMPH,PrecipitationIn,Events,Conditions,WindDirDegrees,DateUTC
12:15 AM,18.5,12.0,76,29.68,10.0,West,19.6,27.6,N/A,,Overcast,270,2013-01-31 06:15:00
12:35 AM,18.5,11.8,75,29.69,10.0,West,18.4,24.2,N/A,,Overcast,270,2013-01-31 06:35:00
12:55 AM,18.5,10.9,72,29.69,10.0,West,17.3,32.2,N/A,,Overcast,270,2013-01-31 06:55:00
1:15 AM,18.5,12.0,76,29.70,10.0,West,13.8,21.9,N/A,,Overcast,260,2013-01-31 07:15:00
1:35 AM,18.5,12.7,78,29.71,10.0,WSW,13.8,23.0,N/A,,Overcast,250,2013-01-31 07:35:00
1:55 AM,18.5,14.0,83,29.71,5.0,WSW,12.7,-,N/A,Snow,Light Snow,250,2013-01-31 07:55:00
2:15 AM,18.5,13.3,80,29.72,7.0,WSW,17.3,25.3,N/A,Snow,Light Snow,250,2013-01-31 08:15:00
2:35 AM,16.5,11.3,80,29.73,10.0,West,16.1,21.9,N/A,Snow,Light Snow,260,2013-01-31 08:35:00
2:55 AM,16.3,10.9,79,29.73,10.0,WSW,16.1,25.3,N/A,,Overcast,250,2013-01-31 08:55:00
3:15 AM,16.2,10.4,78,29.74,10.0,WSW,13.8,20.7,N/A,,Overcast,250,2013-01-31 09:15:00
3:35 AM,16.2,10.8,79,29.74,10.0,WSW,15.0,-,N/A,,Overcast,250,2013-01-31 09:35:00
3:55 AM,16.2,10.4,78,29.74,10.0,WSW,16.1,19.6,N/A,Snow,Light Snow,250,2013-01-31 09:55:00
4:15 AM,16.2,11.3,81,29.75,10.0,WSW,11.5,19.6,N/A,Snow,Light Snow,240,2013-01-31 10:15:00
4:35 AM,16.2,11.3,81,29.75,7.0,WSW,18.4,21.9,N/A,Snow,Light Snow,250,2013-01-31 10:35:00
4:55 AM,16.0,10.8,80,29.75,10.0,WSW,16.1,-,N/A,,Overcast,250,2013-01-31 10:55:00
5:15 AM,14.9,9.9,80,29.75,10.0,WSW,16.1,-,N/A,,Overcast,250,2013-01-31 11:15:00
5:35 AM,13.8,7.7,77,29.76,10.0,West,18.4,24.2,N/A,,Overcast,260,2013-01-31 11:35:00
5:55 AM,13.6,7.7,77,29.77,7.0,West,16.1,27.6,N/A,Snow,Light Snow,270,2013-01-31 11:55:00
6:15 AM,13.6,7.5,77,29.77,10.0,WSW,17.3,25.3,N/A,,Overcast,250,2013-01-31 12:15:00
6:55 AM,11.7,6.6,80,29.79,10.0,WSW,15.0,21.9,N/A,,Mostly Cloudy,250,2013-01-31 12:55:00
7:15 AM,11.1,5.9,80,29.80,10.0,WSW,17.3,21.9,N/A,,Scattered Clouds,240,2013-01-31 13:15:00
7:35 AM,9.5,4.5,80,29.82,10.0,WSW,13.8,-,N/A,,Clear,250,2013-01-31 13:35:00
7:55 AM,9.1,3.9,79,29.82,10.0,West,15.0,19.6,N/A,,Clear,260,2013-01-31 13:55:00
8:15 AM,9.5,3.9,78,29.83,10.0,West,15.0,-,N/A,,Clear,260,2013-01-31 14:15:00
8:35 AM,9.5,3.9,78,29.84,10.0,West,13.8,20.7,N/A,,Clear,260,2013-01-31 14:35:00
8:55 AM,9.5,3.7,77,29.85,10.0,West,18.4,23.0,N/A,,Clear,260,2013-01-31 14:55:00
9:15 AM,9.9,3.9,77,29.85,10.0,West,16.1,20.7,N/A,,Clear,260,2013-01-31 15:15:00
9:35 AM,11.1,4.8,76,29.86,10.0,WSW,11.5,-,N/A,,Clear,250,2013-01-31 15:35:00
9:55 AM,11.1,4.8,76,29.87,10.0,West,12.7,21.9,N/A,,Clear,260,2013-01-31 15:55:00
10:15 AM,11.1,4.6,75,29.88,10.0,West,16.1,-,N/A,,Scattered Clouds,260,2013-01-31 16:15:00
10:35 AM,11.1,4.6,75,29.89,10.0,West,15.0,20.7,N/A,,Mostly Cloudy,260,2013-01-31 16:35:00
10:55 AM,11.3,4.3,73,29.89,7.0,West,16.1,-,N/A,,Mostly Cloudy,260,2013-01-31 16:55:00
11:15 AM,11.5,4.1,72,29.90,10.0,West,13.8,20.7,N/A,,Mostly Cloudy,260,2013-01-31 17:15:00
11:35 AM,12.0,4.6,72,29.91,10.0,West,11.5,18.4,N/A,,Mostly Cloudy,260,2013-01-31 17:35:00
11:55 AM,12.2,5.4,74,29.91,7.0,WSW,13.8,21.9,N/A,,Overcast,250,2013-01-31 17:55:00
12:15 PM,13.6,6.1,72,29.91,10.0,WSW,13.8,23.0,N/A,,Overcast,250,2013-01-31 18:15:00
12:35 PM,13.6,6.1,72,29.91,4.0,West,17.3,21.9,N/A,,Haze,260,2013-01-31 18:35:00
12:55 PM,13.6,5.4,70,29.92,10.0,West,15.0,23.0,N/A,,Overcast,260,2013-01-31 18:55:00
1:15 PM,13.6,6.8,74,29.93,5.0,WSW,18.4,23.0,N/A,,Haze,250,2013-01-31 19:15:00
1:35 PM,12.2,4.5,71,29.93,10.0,West,12.7,23.0,N/A,,Overcast,260,2013-01-31 19:35:00
1:55 PM,13.5,6.6,74,29.93,5.0,West,17.3,-,N/A,,Haze,260,2013-01-31 19:55:00
2:15 PM,13.3,6.1,73,29.94,7.0,West,13.8,21.9,N/A,,Overcast,260,2013-01-31 20:15:00
2:35 PM,11.1,4.8,76,29.94,4.0,WSW,15.0,-,N/A,,Haze,250,2013-01-31 20:35:00
2:55 PM,11.1,5.0,76,29.95,3.0,WSW,16.1,-,N/A,,Haze,250,2013-01-31 20:55:00
3:15 PM,11.1,5.4,78,29.96,3.0,WSW,15.0,-,N/A,,Haze,250,2013-01-31 21:15:00
3:35 PM,9.5,4.1,79,29.97,4.0,WSW,12.7,18.4,N/A,,Haze,250,2013-01-31 21:35:00
3:55 PM,9.1,3.6,78,29.98,3.0,WSW,16.1,21.9,N/A,,Haze,250,2013-01-31 21:55:00
4:15 PM,8.4,2.1,76,29.99,7.0,West,15.0,23.0,N/A,,Mostly Cloudy,260,2013-01-31 22:15:00
4:35 PM,8.4,2.3,76,30.00,7.0,West,13.8,21.9,N/A,,Overcast,260,2013-01-31 22:35:00
4:55 PM,7.7,0.3,72,30.01,10.0,West,17.3,24.2,N/A,,Overcast,260,2013-01-31 22:55:00
5:15 PM,6.8,1.2,78,30.01,4.0,WSW,12.7,-,N/A,,Haze,250,2013-01-31 23:15:00
5:35 PM,6.6,-0.4,73,30.03,10.0,West,15.0,24.2,N/A,,Mostly Cloudy,260,2013-01-31 23:35:00
5:55 PM,5.9,1.4,82,30.04,5.0,West,13.8,18.4,N/A,,Haze,260,2013-01-31 23:55:00
6:15 PM,5.9,0.5,78,30.06,5.0,West,16.1,21.9,N/A,,Haze,260,2013-02-01 00:15:00
6:35 PM,5.9,-1.3,72,30.07,10.0,West,16.1,28.8,N/A,,Overcast,280,2013-02-01 00:35:00
6:55 PM,5.5,-1.7,72,30.08,10.0,West,16.1,23.0,N/A,,Overcast,270,2013-02-01 00:55:00
7:15 PM,4.8,-2.4,72,30.09,10.0,West,20.7,25.3,N/A,,Mostly Cloudy,260,2013-02-01 01:15:00
7:35 PM,4.6,-3.3,70,30.10,10.0,West,19.6,28.8,N/A,,Mostly Cloudy,270,2013-02-01 01:35:00
7:55 PM,4.1,-3.3,71,30.10,10.0,West,20.7,28.8,N/A,,Mostly Cloudy,260,2013-02-01 01:55:00
8:15 PM,3.6,-4.0,71,30.11,10.0,West,17.3,-,N/A,,Overcast,270,2013-02-01 02:15:00
8:35 PM,3.2,-4.0,72,30.12,10.0,West,19.6,27.6,N/A,,Scattered Clouds,270,2013-02-01 02:35:00
8:55 PM,3.2,-4.0,72,30.14,10.0,West,15.0,27.6,N/A,,Clear,270,2013-02-01 02:55:00
9:15 PM,3.2,-4.0,72,30.14,10.0,West,16.1,21.9,N/A,,Mostly Cloudy,270,2013-02-01 03:15:00
9:35 PM,3.2,-3.8,73,30.15,10.0,West,16.1,24.2,N/A,,Mostly Cloudy,270,2013-02-01 03:35:00
9:55 PM,3.2,-4.0,72,30.16,10.0,West,15.0,-,N/A,,Mostly Cloudy,280,2013-02-01 03:55:00
10:15 PM,3.2,-4.2,71,30.16,10.0,West,16.1,24.2,N/A,,Mostly Cloudy,270,2013-02-01 04:15:00
10:35 PM,2.1,-4.9,72,30.17,10.0,West,11.5,18.4,N/A,,Scattered Clouds,270,2013-02-01 04:35:00
10:55 PM,1.9,-5.1,72,30.17,10.0,West,13.8,19.6,N/A,,Scattered Clouds,260,2013-02-01 04:55:00
11:15 PM,1.4,-5.3,74,30.18,10.0,West,15.0,18.4,N/A,,Mostly Cloudy,260,2013-02-01 05:15:00
11:35 PM,1.2,-5.3,74,30.19,10.0,West,12.7,19.6,N/A,,Mostly Cloudy,260,2013-02-01 05:35:00
11:55 PM,0.9,-5.8,74,30.20,10.0,West,15.0,20.7,N/A,,Mostly Cloudy,260,2013-02-01 05:55:00